Location: Spring Creek
(38.2870°N, 100.2160°W)
Time: 03:37:06
(UTC+00:00)

MOS 1-B Rocket - Pass Details

Date: 08 May 2021
Orbit: 890 x 1606 km, 99.0° (Epoch: 22 June)

Event Time Altitude Azimuth Distance (km) Brightness Sun altitude
Rises 02:30:37 0° 13° (NNE) 4,384 7.6 -10.0°
Reaches altitude 10° 02:33:32 10° 15° (NNE) 3,309 7.0 -10.5°
Maximum altitude 02:41:05 84° 104° (ESE) 1,151 4.3 -11.7°
Drops below altitude 10° 02:47:26 10° 193° (SSW) 2,806 6.2 -12.8°
Sets 02:49:45 0° 193° (SSW) 3,684 6.8 -13.1°
